Flag for Namibia Weather past 2 weeks in Walvis Bay, Namibia

Now
59 °F

Scattered clouds.


Feels Like: 60 °F
Forecast: 66 / 75 °F
Wind: 3 mph from East

Location: Walvis Bay

Current Time: Jan 31, 2015 at 7:46:36 AM

Latest Report: Jan 31, 2015 at 7:00 AM


Visibility: N/A

Pressure: 29.98 "Hg

Humidity: 82%

Dew point: 54 °F

Location of Walvis BayLocation

Historic Weather in Walvis Bay — Graph

°F

Walvis Bay temperature yesterday

Maximum temperature yesterday: 72 °F (at 1:00 PM)
Minimum temperature yesterday: 63 °F (at 9:00 AM)
Average temperature yesterday: 67 °F

Past Weeks' High & Low Weather Summary

 TemperatureHumidityPressure
High84 °F (Jan 24, 2:00 PM)94% (Jan 17, 2:00 AM)30.04 "Hg (Jan 17, 2:00 AM)
Low59 °F (Jan 18, 1:00 AM)42% (Jan 16, 12:00 PM)29.83 "Hg (Jan 23, 4:00 PM)
Average67 °F75%29.93 "Hg
* Reported Jan 16 7:00 AM — Jan 31 7:00 AM, Walvis Bay, Weather by CustomWeather, © 2014

Note: Actual official high and low records may vary slightly from our data, if they occured in-between our weather recording intervals... More about our weather records

Advertising

Walvis Bay weather history for previous 24 hours

 ConditionsComfort  
Time TempWeatherWind HumidityBarometerVisibility
7:00 AM
Jan 31
59 °FScattered clouds.3 mph82%29.98 "HgN/A
6:00 AM59 °FCool.6 mph82%29.95 "HgN/A
5:00 AM59 °FCool.2 mph82%29.95 "HgN/A
4:00 AM61 °FCool.3 mph77%29.95 "HgN/A
3:00 AM61 °FCool.3 mph77%29.98 "HgN/A
2:00 AM63 °FMild.3 mph77%29.98 "HgN/A
1:00 AM63 °FMild.3 mph77%29.98 "HgN/A
12:00 AM63 °FMild.3 mph77%29.98 "HgN/A
11:00 PM
Jan 30
64 °FMild.6 mph73%30.01 "HgN/A
10:00 PM66 °FMild.7 mph68%29.98 "HgN/A
9:00 PM66 °FMild.10 mph68%29.95 "HgN/A
8:00 PM68 °FClear.17 mph64%29.95 "Hg10 mi
7:00 PM70 °FMild.20 mph60%29.95 "HgN/A
6:00 PM72 °FMild.24 mph61%29.92 "HgN/A
1:00 PM72 °FScattered clouds.5 mph61%29.98 "HgN/A
11:00 AM64 °FOvercast.3 mph78%30.01 "HgN/A
10:00 AM63 °FMild.3 mph83%30.01 "HgN/A
9:00 AM63 °FOvercast.7 mph83%30.01 "HgN/A
Weather by CustomWeather, © 2014

See weather overviewHow to use our weather pages